Keokuk, IA

11:00 AM CST on December 16, 2017 (GMT -0600)
Keokuk Municipal

Weather History for KEOK - October, 2013

Change the Weather History Date:

Monday, October 21, 2013

  Actual Average Record
Temperature  
Mean Temperature 47 °F -  
Max Temperature 57 °F 66 °F 87 °F (1979)
Min Temperature 37 °F 44 °F 30 °F (1987)
Degree Days  
Heating Degree Days 18    
Moisture  
Dew Point 31 °F    
Average Humidity 59    
Maximum Humidity 81    
Minimum Humidity 35    
Precipitation  
Precipitation 0.00 in - - ()
Sea Level Pressure  
Sea Level Pressure 30.00 in    
Wind  
Wind Speed 10 mph (WNW)    
Max Wind Speed 20 mph    
Max Gust Speed 26 mph    
Visibility 10 miles    
Events      
Averages and records for this station are not official NWS values.
T = Trace of Precipitation, MM = Missing Value Source: NWS Daily Summary

Daily Weather History Graph

Daily Weather History Graph

Search for Another Location

Airport or City:

Trip Planner

Search our weather history database for the weather conditions in past years. The results will help you decide how hot, cold, wet, or windy it might be!

Date:

Astronomy

Oct. 21, 2013 Rise Set
Actual Time 7:23 AM CDT 6:16 PM CDT
Civil Twilight 6:55 AM CDT 6:44 PM CDT
Nautical Twilight 6:23 AM CDT 7:15 PM CDT
Astronomical Twilight 5:52 AM CDT 7:47 PM CDT
Moon 8:09 PM CDT (10/21) 9:59 AM CDT (10/21)
Length of Visible Light 11h 48m
Length of Day
10h 53m
Waning Gibbous, 92% of the Moon is Illuminated
Oct 21
Waning Gibbous
Oct 26
Last Quarter
Nov 3
New
Nov 9
First Quarter
Nov 17
Full

Hourly Weather History & Observations

Time (CDT) Temp. Windchill Dew Point Humidity Pressure Visibility Wind Dir Wind Speed Gust Speed Precip Events Conditions
12:15 AM 57.2 °F - 42.8 °F 59% 29.88 in 10.0 mi NW 9.2 mph 15.0 mph N/A   Overcast
12:35 AM 55.4 °F - 42.8 °F 63% 29.88 in 10.0 mi NW 9.2 mph 16.1 mph N/A   Overcast
12:55 AM 55.4 °F - 42.8 °F 63% 29.88 in 10.0 mi NW 11.5 mph 17.3 mph N/A   Overcast
1:15 AM 53.6 °F - 42.8 °F 67% 29.89 in 10.0 mi NW 11.5 mph - N/A   Overcast
1:35 AM 53.6 °F - 42.8 °F 67% 29.90 in 10.0 mi NW 9.2 mph - N/A   Overcast
1:55 AM 53.6 °F - 42.8 °F 67% 29.90 in 10.0 mi NW 13.8 mph - N/A   Overcast
2:15 AM 51.8 °F - 42.8 °F 71% 29.91 in 10.0 mi NW 8.1 mph - N/A   Overcast
2:35 AM 51.8 °F - 42.8 °F 71% 29.91 in 10.0 mi NNW 10.4 mph - N/A   Overcast
2:55 AM 50.0 °F - 41.0 °F 71% 29.92 in 10.0 mi NW 11.5 mph - N/A   Overcast
3:15 AM 50.0 °F - 41.0 °F 71% 29.92 in 10.0 mi NW 12.7 mph 18.4 mph N/A   Scattered Clouds
3:35 AM 48.2 °F - 41.0 °F 76% 29.93 in 10.0 mi NNW 12.7 mph 23.0 mph N/A   Clear
3:55 AM 46.4 °F 41.1 °F 39.2 °F 76% 29.94 in 10.0 mi NW 11.5 mph 19.6 mph N/A   Partly Cloudy
4:15 AM 44.6 °F 37.8 °F 37.4 °F 76% 29.95 in 10.0 mi NNW 15.0 mph 21.9 mph N/A   Partly Cloudy
4:35 AM 44.6 °F 37.4 °F 35.6 °F 71% 29.96 in 10.0 mi NW 16.1 mph - N/A   Clear
4:55 AM 42.8 °F 37.0 °F 35.6 °F 76% 29.97 in 10.0 mi NW 10.4 mph 18.4 mph N/A   Clear
5:15 AM 42.8 °F 38.6 °F 35.6 °F 76% 29.97 in 10.0 mi NW 6.9 mph 13.8 mph N/A   Partly Cloudy
5:35 AM 41.0 °F 36.4 °F 35.6 °F 81% 29.98 in 10.0 mi NW 6.9 mph - N/A   Clear
5:55 AM 41.0 °F 35.2 °F 35.6 °F 81% 29.98 in 10.0 mi NW 9.2 mph - N/A   Mostly Cloudy
6:15 AM 41.0 °F 36.4 °F 35.6 °F 81% 29.99 in 10.0 mi NW 6.9 mph 13.8 mph N/A   Overcast
6:35 AM 42.8 °F 37.5 °F 33.8 °F 70% 29.99 in 10.0 mi NW 9.2 mph - N/A   Overcast
6:55 AM 42.8 °F 37.0 °F 33.8 °F 70% 30.00 in 10.0 mi NW 10.4 mph 16.1 mph N/A   Overcast
7:15 AM 42.8 °F 36.6 °F 33.8 °F 70% 30.01 in 10.0 mi NW 11.5 mph - N/A   Overcast
7:35 AM 41.0 °F 34.3 °F 32.0 °F 70% 30.02 in 10.0 mi NW 11.5 mph - N/A   Mostly Cloudy
7:55 AM 41.0 °F 35.8 °F 32.0 °F 70% 30.02 in 10.0 mi NW 8.1 mph - N/A   Partly Cloudy
8:15 AM 39.2 °F 35.0 °F 32.0 °F 75% 30.03 in 10.0 mi NW 5.8 mph - N/A   Clear
8:35 AM 39.2 °F 34.2 °F 32.0 °F 75% 30.04 in 10.0 mi WNW 6.9 mph - N/A   Clear
8:55 AM 41.0 °F 35.8 °F 30.2 °F 65% 30.04 in 10.0 mi WNW 8.1 mph - N/A   Clear
9:15 AM 41.0 °F 36.4 °F 32.0 °F 70% 30.05 in 10.0 mi WNW 6.9 mph - N/A   Clear
9:35 AM 42.8 °F 38.0 °F 32.0 °F 66% 30.05 in 10.0 mi WNW 8.1 mph 13.8 mph N/A   Clear
9:55 AM 44.6 °F 39.7 °F 32.0 °F 61% 30.05 in 10.0 mi NW 9.2 mph 17.3 mph N/A   Clear
10:15 AM 44.6 °F 38.1 °F 32.0 °F 61% 30.05 in 10.0 mi NW 13.8 mph - N/A   Scattered Clouds
10:35 AM 44.6 °F 38.8 °F 32.0 °F 61% 30.05 in 10.0 mi NW 11.5 mph - N/A   Mostly Cloudy
10:55 AM 46.4 °F 40.4 °F 30.2 °F 53% 30.05 in 10.0 mi NW 13.8 mph 21.9 mph N/A   Mostly Cloudy
11:15 AM 46.4 °F 40.4 °F 26.6 °F 46% 30.05 in 10.0 mi NW 13.8 mph 23.0 mph N/A   Partly Cloudy
11:35 AM 46.4 °F 40.7 °F 26.6 °F 46% 30.05 in 10.0 mi NW 12.7 mph 20.7 mph N/A   Partly Cloudy
11:55 AM 46.4 °F 39.8 °F 26.6 °F 46% 30.05 in 10.0 mi NNW 16.1 mph - N/A   Scattered Clouds
12:15 PM 46.4 °F 39.8 °F 26.6 °F 46% 30.05 in 10.0 mi WNW 16.1 mph 23.0 mph N/A   Mostly Cloudy
12:35 PM 48.2 °F - 24.8 °F 40% 30.04 in 10.0 mi NW 16.1 mph 23.0 mph N/A   Mostly Cloudy
12:55 PM 46.4 °F 39.2 °F 24.8 °F 43% 30.04 in 10.0 mi WNW 18.4 mph 26.5 mph N/A   Scattered Clouds
1:15 PM 48.2 °F - 24.8 °F 40% 30.03 in 10.0 mi West 12.7 mph 21.9 mph N/A   Clear
1:35 PM 50.0 °F - 23.0 °F 35% 30.02 in 10.0 mi NW 19.6 mph 26.5 mph N/A   Partly Cloudy
1:55 PM 50.0 °F - 24.8 °F 37% 30.01 in 10.0 mi West 16.1 mph - N/A   Clear
2:15 PM 50.0 °F - 23.0 °F 35% 30.01 in 10.0 mi West 13.8 mph 21.9 mph N/A   Clear
2:35 PM 50.0 °F - 23.0 °F 35% 30.01 in 10.0 mi NW 11.5 mph 19.6 mph N/A   Clear
2:55 PM 50.0 °F - 23.0 °F 35% 30.01 in 10.0 mi West 17.3 mph - N/A   Clear
3:15 PM 50.0 °F - 24.8 °F 37% 30.01 in 10.0 mi Variable 5.8 mph 18.4 mph N/A   Clear
3:35 PM 51.8 °F - 24.8 °F 35% 30.00 in 10.0 mi West 13.8 mph - N/A   Clear
3:55 PM 50.0 °F - 23.0 °F 35% 30.01 in 10.0 mi West 9.2 mph 17.3 mph N/A   Clear
4:15 PM 50.0 °F - 23.0 °F 35% 30.00 in 10.0 mi WNW 8.1 mph 16.1 mph N/A   Clear
4:35 PM 50.0 °F - 23.0 °F 35% 30.00 in 10.0 mi WNW 12.7 mph - N/A   Clear
4:55 PM 50.0 °F - 24.8 °F 37% 30.00 in - West 12.7 mph - N/A   Clear
5:15 PM 50.0 °F - 24.8 °F 37% 30.00 in 10.0 mi WNW 11.5 mph - N/A   Clear
5:35 PM 50.0 °F - 24.8 °F 37% 30.00 in 10.0 mi West 9.2 mph 17.3 mph N/A   Clear
5:55 PM 46.4 °F 42.9 °F 24.8 °F 43% 30.00 in 10.0 mi West 6.9 mph - N/A   Clear
6:15 PM 46.4 °F 44.3 °F 24.8 °F 43% 30.01 in 10.0 mi West 4.6 mph - N/A   Partly Cloudy
6:35 PM 44.6 °F 41.4 °F 24.8 °F 46% 30.01 in 10.0 mi West 5.8 mph - N/A   Mostly Cloudy
6:55 PM 44.6 °F 42.2 °F 26.6 °F 49% 30.01 in 10.0 mi WNW 4.6 mph - N/A   Overcast
7:15 PM 46.4 °F 44.3 °F 26.6 °F 46% 30.01 in 10.0 mi West 4.6 mph - N/A   Overcast
7:35 PM 44.6 °F - 26.6 °F 49% 30.01 in 10.0 mi Calm Calm - N/A   Overcast
7:55 PM 42.8 °F 41.1 °F 28.4 °F 57% 30.01 in 10.0 mi WSW 3.5 mph - N/A   Overcast
8:15 PM 42.8 °F 41.1 °F 28.4 °F 57% 30.02 in 10.0 mi West 3.5 mph - N/A   Mostly Cloudy
8:35 PM 42.8 °F - 28.4 °F 57% 30.02 in 10.0 mi Calm Calm - N/A   Partly Cloudy
8:55 PM 41.0 °F 39.0 °F 30.2 °F 65% 30.02 in 10.0 mi WSW 3.5 mph - N/A   Mostly Cloudy
9:15 PM 39.2 °F - 30.2 °F 70% 30.02 in 10.0 mi Calm Calm - N/A   Overcast
9:35 PM 39.2 °F 35.9 °F 30.2 °F 70% 30.03 in 10.0 mi SW 4.6 mph - N/A   Overcast
9:55 PM 39.2 °F 35.9 °F 30.2 °F 70% 30.03 in 10.0 mi WSW 4.6 mph - N/A   Overcast
10:15 PM 39.2 °F 35.9 °F 30.2 °F 70% 30.03 in 10.0 mi SW 4.6 mph - N/A   Partly Cloudy
10:35 PM 39.2 °F - 30.2 °F 70% 30.02 in 10.0 mi Calm Calm - N/A   Mostly Cloudy
10:55 PM 37.4 °F - 32.0 °F 81% 30.02 in 10.0 mi Calm Calm - N/A   Overcast
11:15 PM 39.2 °F 37.0 °F 32.0 °F 75% 30.02 in 10.0 mi SW 3.5 mph - N/A   Overcast
11:35 PM 39.2 °F 37.0 °F 32.0 °F 75% 30.02 in 10.0 mi SSW 3.5 mph - N/A   Overcast
11:55 PM 39.2 °F 37.0 °F 32.0 °F 75% 30.02 in 10.0 mi SW 3.5 mph - N/A   Overcast